Volver al catálogo

CZ-6A DEB

ActivoPO
NORAD 60627·DEBRIS·🇨🇳 China

Lanzado Aug 6, 2024 desde Taiyuan Satellite Launch Center

Loading…

Próximos Pases (próximas 24 horas)

TLE

ActualizadoSource: Space-Track

Época: Sep 14, 2026, 02:54 UTC

1 60627U 24140AC  26257.12147684 -.00000280  00000-0 -30210-3 0  9998
2 60627  88.0630 204.7165 0539252 234.6333 120.3282 13.25546372101629

Sigue CZ-6A DEB en tiempo real con AllMySat

Download on the App Store